Location: Diebersbach
(48.5163°N, 8.0558°E)
Time: 23:14:12
(UTC+00:00)

FENGYUN 1C DEB - Pass Details

Date: 04 February 2022
Orbit: 690 x 984 km, 98.6° (Epoch: 20 May)

Event Time Altitude Azimuth Distance (km) Brightness Sun altitude
Rises 17:29:10 0° 165° (SSE) 3,664 ? -9.9°
Reaches altitude 10° 17:31:38 10° 166° (SSE) 2,731 ? -10.3°
Maximum altitude 17:37:51 84° 255° (WSW) 993 ? -11.3°
Drops below altitude 10° 17:44:01 10° 344° (NNW) 2,705 ? -12.3°
Sets 17:46:26 0° 346° (NNW) 3,629 ? -12.7°
